Home > Weather > Bloomington > Past weeks

Flag for U.S.A. Weather for the Past 2 Weeks in Bloomington, Indiana, U.S.A.

Now
35 °F

Partly sunny.


Feels Like: 29 °F
Forecast: 24 / 38 °F
Wind: 7 mph from West

Location: Monroe County Airport

Current Time: Feb 8, 2016 at 12:25:03 PM

Latest Report: Feb 8, 2016 at 11:53 AM


Visibility: 7 mi

Pressure: 29.69 "Hg

Humidity: 88%

Dew point: 32 °F

Location of BloomingtonLocation

Historic Weather in Bloomington — Graph

°F

Bloomington Temperature Yesterday

Maximum temperature yesterday: 54 °F (at 2:53 PM)
Minimum temperature yesterday: 36 °F (at 6:53 AM)
Average temperature yesterday: 44 °F

High & Low Weather Summary for the Past Weeks

 TemperatureHumidityPressure
High63 °F (Jan 31, 2:53 PM)96% (Feb 2, 8:53 PM)30.42 "Hg (Feb 2, 8:53 PM)
Low18 °F (Feb 5, 5:53 AM)37% (Feb 7, 2:53 PM)29.51 "Hg (Feb 3, 12:53 AM)
Average39 °F69%30.00 "Hg
* Reported Jan 24 10:53 AM — Feb 8 10:53 AM, Bloomington, Weather by CustomWeather, © 2016

Note: Actual official high and low records may vary slightly from our data, if they occured in-between our weather recording intervals... More about our weather records

Advertising

Bloomington Weather History for the Previous 24 Hours

 ConditionsComfort  
Time TempWeatherWind HumidityBarometerVisibility
10:53 AM
Mon, Feb 8
36 °FMostly cloudy.7 mph85%29.69 "Hg10 mi
9:53 AM35 °FLight snow. Fog.8 mph88%29.69 "Hg6 mi
8:53 AM34 °FLow clouds.7 mph92%29.69 "Hg10 mi
7:53 AM34 °FLight snow. Fog.8 mph92%29.69 "Hg5 mi
6:53 AM34 °FMostly cloudy.No wind92%29.69 "Hg10 mi
5:53 AM35 °FMostly cloudy.3 mph92%29.70 "Hg10 mi
4:53 AM35 °FLow clouds.3 mph92%29.71 "Hg10 mi
3:53 AM37 °FOvercast.5 mph86%29.72 "Hg10 mi
3:01 AM38 °FLight rain. Overcast.6 mph83%29.73 "Hg10 mi
1:53 AM41 °FMostly cloudy.9 mph67%29.74 "Hg10 mi
12:53 AM37 °FOvercast.3 mph76%29.77 "Hg10 mi
11:53 PM
Sun, Feb 7
41 °FPassing clouds.3 mph67%29.79 "Hg10 mi
10:53 PM43 °FPassing clouds.8 mph62%29.81 "Hg10 mi
9:53 PM44 °FPassing clouds.8 mph58%29.82 "Hg10 mi
8:53 PM48 °FOvercast.8 mph48%29.83 "Hg10 mi
7:53 PM49 °FOvercast.7 mph43%29.83 "Hg10 mi
6:53 PM48 °FPartly cloudy.9 mph44%29.84 "Hg10 mi
5:53 PM50 °FPartly sunny.15 mph41%29.85 "Hg10 mi
4:53 PM51 °FSunny.15 mph38%29.85 "Hg10 mi
3:53 PM52 °FSunny.10 mph40%29.85 "Hg10 mi
2:53 PM54 °FSunny.23 mph37%29.86 "Hg10 mi
1:53 PM52 °FSunny.23 mph45%29.91 "Hg10 mi
12:53 PM51 °FSunny.17 mph46%29.96 "Hg10 mi
Weather by CustomWeather, © 2016

See weather overviewHow to use our weather pages